Regional Weather Roundup
Issued by NWS

Home | Current Version | Previous Version | Text Only | Print | Product List | Glossary Off
Versions: 1 2 3 4 5 6 7 8 9 10 11 12 13 14 15 16 17 18 19 20 21 22 23 24 25 26 27 28 29 30 31 32 33 34 35 36 37 38 39 40 41 42 43 44 45 46 47 48 49 50

000
ASUS43 KIND 231809
RWRIN

WEATHER ROUNDUP FOR INDIANA
NATIONAL WEATHER SERVICE INDIANAPOLIS IN
200 PM EDT SAT SEP 23 2017

NOTE: "FAIR" INDICATES FEW OR NO CLOUDS BELOW 12,000 FEET WITH NO
SIGNIFICANT WEATHER AND/OR OBSTRUCTIONS TO VISIBILITY.

* - STATION DOES NOT REPORT WEATHER SUCH AS PRECIPITATION OR FOG.

+ - STATION NOT QUALITY CONTROLLED BY THE NATIONAL WEATHER SERVICE.
    USE DATA WITH CAUTION...ESPECIALLY DEWPOINT AND RELATIVE
    HUMIDITY OBSERVATIONS.

INZ001>003-010>013-019-020-231900-
NORTHWEST INDIANA

CITY           SKY/WX    TMP DP  RH WIND       PRES   REMARKS
GARY /AIRPORT/ SUNNY     91  59  33 SE6       30.10F
KNOX *+        SUNNY     90  64  43 SW5       30.10F
LA PORTE +     SUNNY     89  67  48 SW3       30.12F
6HR MIN TEMP:  64; 6HR MAX TEMP:  89;

MICHIGAN CITY+ SUNNY     90  64  43 CALM      30.10F
MONTICELLO +   SUNNY     89  62  41 CALM      30.10F
6HR MIN TEMP:  65; 6HR MAX TEMP:  89;

RENSSELAER +   SUNNY     90  52  27 S5        30.10F
VALPARAISO     SUNNY     93  66  40 VRB3      30.10F HX  96
6HR MIN TEMP:  67; 6HR MAX TEMP:  93;


$$

LMZ046-743>745-231900-
SOUTHERN LAKE MICHIGAN

STATION/POSITION TIME  TEMP    WIND        PRES    WAVE
                       AIR SEA DIR/SP/G            HT
                 (UTC) (F)     (DEG/KT/KT) (MB)    (FT)
BURNS HARBOR     1800   79      40/  9/  9 1019.3
MICHIGAN CITY    1740   78      10/  5/  6   N/A
5NW MICH CITY    1800   78 76   30/  4/  6   N/A     1

$$

INZ004-005-014>016-021>024-231900-
NORTH CENTRAL INDIANA

CITY           SKY/WX    TMP DP  RH WIND       PRES   REMARKS
ELKHART        SUNNY     88  64  45 CALM      30.12F
GOSHEN         SUNNY     90  63  40 VRB3      30.12F
6HR MIN TEMP:  65; 6HR MAX TEMP:  90; 6HR PCP: TRACE;

LOGANSPORT +   SUNNY     88  63  42 NE3       30.11F
PERU/GRISSOM   SUNNY     88  66  47 NE5       30.11F
6HR MIN TEMP:  65; 6HR MAX TEMP:  89;

SOUTH BEND     SUNNY     90  66  45 E3        30.12F
6HR MIN TEMP:  66; 6HR MAX TEMP:  90;

WARSAW +       SUNNY     88  64  45 CALM      30.12F

$$

INZ006>009-017-018-025>027-231900-
NORTHEAST INDIANA

CITY           SKY/WX    TMP DP  RH WIND       PRES   REMARKS
AUBURN +       SUNNY     88  61  40 S3        30.15S
FORT WAYNE     SUNNY     89  66  46 VRB3      30.13F
6HR MIN TEMP:  65; 6HR MAX TEMP:  89;

HUNTINGTON +   SUNNY     88  64  45 W3        30.12F
6HR MIN TEMP:  64; 6HR MAX TEMP:  88;

KENDALLVILLE + SUNNY     86  65  48 CALM      30.14F

$$

INZ028-029-035-036-043>045-051>053-231900-
WEST CENTRAL INDIANA

CITY           SKY/WX    TMP DP  RH WIND       PRES   REMARKS
CRAWFORDSVL +  SUNNY     86  64  48 CALM      30.10F
GREENCASTLE +  SUNNY     88  63  42 CALM      30.11F
LAFAYETTE      SUNNY     88  67  49 VRB5      30.09F
6HR MIN TEMP:  65; 6HR MAX TEMP:  89;

TERRE HAUTE    MOSUNNY   91  64  40 E8        30.09F
6HR MIN TEMP:  65; 6HR MAX TEMP:  92;


$$

INZ030>032-037>040-046>048-054>057-064-065-231900-
CENTRAL INDIANA

CITY           SKY/WX    TMP DP  RH WIND       PRES   REMARKS
ANDERSON       SUNNY     86  64  48 VRB3      30.13F
CP ATTERBURY + SUNNY     88  63  42 CALM      30.11F
COLUMBUS       SUNNY     86  54  32 CALM      30.11F
FRANKFORT +    CLOUDY    91  65  41 CALM      30.13F
6HR MIN TEMP:  66; 6HR MAX TEMP:  92;

GREENWOOD *+   SUNNY     90  67  46 CALM      30.13S
INDIANAPOLIS   MOSUNNY   89  65  44 SE5       30.11F
6HR MIN TEMP:  69; 6HR MAX TEMP:  89;

-EAGLE CREEK   SUNNY     88  64  44 W5        30.10F
6HR MIN TEMP:  67; 6HR MAX TEMP:  89;

KOKOMO +       SUNNY     89  67  47 CALM      30.12F
6HR MIN TEMP:  64; 6HR MAX TEMP:  89;

MARION +       SUNNY     88  64  45 E7        30.13F
MT COMFORT *+  SUNNY     88  64  45 S3        30.13S
SHELBYVILLE    SUNNY     90  63  40 CALM      30.10F
6HR MIN TEMP:  64; 6HR MAX TEMP:  90;

ZIONSVILLE +   SUNNY     85  65  50 CALM      30.12F
6HR MIN TEMP:  62; 6HR MAX TEMP:  86;


$$

INZ033-034-041-042-049-050-058-059-231900-
EAST CENTRAL INDIANA

CITY           SKY/WX    TMP DP  RH WIND       PRES   REMARKS
MUNCIE         SUNNY     89  64  43 CALM      30.12F
6HR MIN TEMP:  66; 6HR MAX TEMP:  90;

RICHMOND +     SUNNY     86  61  42 CALM      30.14F

$$

INZ060-061-067>069-081>083-085>088-231900-
SOUTHWEST INDIANA

CITY           SKY/WX    TMP DP  RH WIND       PRES   REMARKS
EVANSVILLE     SUNNY     86  63  45 NE5       30.08F
6HR MIN TEMP:  66; 6HR MAX TEMP:  87;

HUNTINGBURG +  SUNNY     85  67  54 E9        30.08F
6HR MIN TEMP:  63; 6HR MAX TEMP:  85;

WASHINGTON +   SUNNY     88  60  38 E9        30.08F
6HR MIN TEMP:  64; 6HR MAX TEMP:  88;


$$

INZ062-063-066-070>080-084-089>092-231900-
SOUTH CENTRAL AND SOUTHEAST INDIANA

CITY           SKY/WX    TMP DP  RH WIND       PRES   REMARKS
BEDFORD +      SUNNY     88  61  40 E6        30.09F
BLOOMINGTON    SUNNY     89  61  38 SE7       30.10F
6HR MIN TEMP:  62; 6HR MAX TEMP:  90;

MADISON *+     SUNNY     86  61  42 S6        30.13F
NORTH VERNON + SUNNY     86  63  45 SE5       30.11F
SEYMOUR +      SUNNY     90  63  40 E5        30.09F

$$





USA.gov is the U.S. government's official web portal to all federal, state and local government web resources and services.